DW4666 Weather Reports


Display with metric or nautical units.
time (UTC)temp
F
wind
direction
speed
MPH
gust
MPH
rain 1hr
in
rain 24hr
in
rain mn
in
humidity
%
barometer
mb
20260506175403 68 186 4.0 13.0 0.00 0.00 0.00 57 1007.1
20260506174503 70 199 4.0 11.0 0.00 0.00 0.00 50 1006.8
20260506173603 71 198 5.0 11.0 0.00 0.00 0.00 48 1006.8
20260506172912 72 202 3.0 9.0 0.00 0.00 0.00 47 1006.6
20260506171803 73 210 2.0 4.0 0.00 0.00 0.00 45 1006.0
20260506170903 73 203 1.0 2.0 0.00 0.00 0.00 45 1006.2
20260506170003 74 193 1.0 3.0 0.00 0.00 0.00 44 1006.3
20260506165403 74 183 2.0 4.0 0.00 0.00 0.00 43 1006.2
20260506164713 75 191 2.0 4.0 0.00 0.00 0.00 42 1006.2
20260506163603 76 206 2.0 4.0 0.00 0.00 0.00 41 1006.3
20260506162914 77 218 2.0 6.0 0.00 0.00 0.00 41 1006.3
20260506161803 77 205 3.0 5.0 0.00 0.00 0.00 39 1006.4
20260506161113 77 206 3.0 7.0 0.00 0.00 0.00 39 1006.2
20260506160214 77 215 3.0 7.0 0.00 0.00 0.00 39 1006.6
20260506155403 77 211 3.0 7.0 0.00 0.00 0.00 39 1006.3
20260506154503 76 204 3.0 6.0 0.00 0.00 0.00 40 1006.6
20260506153812 76 195 4.0 10.0 0.00 0.00 0.00 40 1006.6
20260506152703 78 220 4.0 9.0 0.00 0.00 0.00 39 1006.6
20260506151803 78 203 4.0 10.0 0.00 0.00 0.00 38 1006.7
20260506150903 78 198 3.0 8.0 0.00 0.00 0.00 38 1006.6
20260506150003 78 212 4.0 11.0 0.00 0.00 0.00 38 1006.7
20260506145403 78 200 4.0 11.0 0.00 0.00 0.00 38 1006.8
20260506144712 77 201 4.0 11.0 0.00 0.00 0.00 39 1007.0
20260506143603 77 207 4.0 10.0 0.00 0.00 0.00 39 1006.9
20260506142703 78 214 5.0 11.0 0.00 0.00 0.00 37 1006.8
20260506141803 77 204 6.0 12.0 0.00 0.00 0.00 38 1007.1
20260506140903 78 209 4.0 9.0 0.00 0.00 0.00 36 1006.9
20260506140003 77 209 5.0 10.0 0.00 0.00 0.00 38 1007.1
20260506135403 76 201 5.0 10.0 0.00 0.00 0.00 37 1007.1
20260506134503 77 199 4.0 9.0 0.00 0.00 0.00 37 1007.1
20260506133603 77 211 5.0 12.0 0.00 0.00 0.00 39 1007.1
20260506132703 77 206 5.0 13.0 0.00 0.00 0.00 40 1007.1
20260506131803 76 192 5.0 11.0 0.00 0.00 0.00 41 1007.2
20260506130922 77 199 4.0 9.0 0.00 0.00 0.00 40 1007.2
20260506130003 76 206 5.0 10.0 0.00 0.00 0.00 39 1007.4
20260506125403 77 200 5.0 12.0 0.00 0.00 0.00 36 1007.4
20260506124503 76 189 6.0 12.0 0.00 0.00 0.00 39 1007.4
20260506123603 77 202 5.0 14.0 0.00 0.00 0.00 39 1007.3
20260506122703 75 200 5.0 15.0 0.00 0.00 0.00 40 1007.7
20260506121803 75 214 5.0 11.0 0.00 0.00 0.00 42 1007.2
20260506120903 76 214 4.0 11.0 0.00 0.00 0.00 41 1007.6
20260506120003 74 215 4.0 10.0 0.00 0.00 0.00 43 1007.4
20260506115614 75 215 3.0 10.0 0.00 0.00 0.00 43 1007.3
20260506114713 75 201 5.0 12.0 0.00 0.00 0.00 44 1007.4
20260506113603 75 209 6.0 17.0 0.00 0.00 0.00 42 1007.3
20260506112703 75 207 5.0 12.0 0.00 0.00 0.00 43 1007.6
20260506111803 74 194 5.0 14.0 0.00 0.00 0.00 43 1007.4
20260506110903 75 210 4.0 10.0 0.00 0.00 0.00 44 1007.7
20260506110003 74 208 5.0 10.0 0.00 0.00 0.00 45 1007.7
20260506105614 74 211 5.0 10.0 0.00 0.00 0.00 45 1007.6
20260506104503 74 192 5.0 12.0 0.00 0.00 0.00 47 1007.8
20260506103812 73 197 5.0 11.0 0.00 0.00 0.00 48 1007.8
20260506102914 73 194 5.0 10.0 0.00 0.00 0.00 46 1007.7
20260506101803 72 206 5.0 16.0 0.00 0.00 0.00 51 1007.9
20260506101112 71 210 5.0 11.0 0.00 0.00 0.00 51 1007.7
20260506100003 72 206 5.0 12.0 0.00 0.00 0.00 50 1007.7
20260506095403 71 204 5.0 11.0 0.00 0.00 0.00 49 1007.4
20260506094503 71 197 5.0 11.0 0.00 0.00 0.00 49 1007.6
20260506093603 71 201 5.0 13.0 0.00 0.00 0.00 50 1007.6
20260506092703 70 213 5.0 13.0 0.00 0.00 0.00 51 1007.6
20260506092013 69 211 5.0 13.0 0.00 0.00 0.00 52 1007.6
20260506090903 70 207 5.0 12.0 0.00 0.00 0.00 51 1007.6
20260506090003 69 204 4.0 10.0 0.00 0.00 0.00 52 1007.7
20260506085403 69 209 4.0 9.0 0.00 0.00 0.00 53 1007.6
20260506084712 68 195 5.0 11.0 0.00 0.00 0.00 52 1007.6
20260506083603 69 196 4.0 10.0 0.00 0.00 0.00 54 1007.4
20260506082913 67 211 6.0 14.0 0.00 0.00 0.00 56 1007.4
20260506081803 67 210 4.0 12.0 0.00 0.00 0.00 54 1007.4
20260506081114 70 212 4.0 11.0 0.00 0.00 0.00 51 1007.2
20260506072703 68 192 5.0 11.0 0.00 0.00 0.00 50 1006.8
20260506071803 68 208 4.0 13.0 0.00 0.00 0.00 50 1006.9
20260506070903 67 195 5.0 13.0 0.00 0.00 0.00 52 1006.8
20260506061803 66 190 3.0 6.0 0.00 0.00 0.00 52 1006.9
20260506060903 65 195 3.0 6.0 0.00 0.00 0.00 52 1006.9
20260506050903 61 157 1.0 3.0 0.00 0.00 0.00 57 1007.0
20260506044503 59 164 1.0 3.0 0.00 0.00 0.00 60 1006.8
20260506043812 58 127 1.0 3.0 0.00 0.00 0.00 60 1006.9
20260506042703 55 66 0.0 2.0 0.00 0.00 0.00 67 1006.6
20260506042013 53 0 0.0 1.0 0.00 0.00 0.00 72 1006.7
20260506040903 52 141 0.0 1.0 0.00 0.00 0.00 75 1006.7
20260506040003 52 98 0.0 2.0 0.00 0.00 0.00 74 1006.7
20260506035613 51 85 0.0 2.0 0.00 0.00 0.00 75 1006.6
20260506034503 50 84 0.0 2.0 0.00 0.00 0.00 78 1006.7
20260506033603 49 114 1.0 2.0 0.00 0.00 0.00 78 1006.6
20260506032913 49 133 0.0 2.0 0.00 0.00 0.00 79 1006.8
20260506031803 49 102 1.0 2.0 0.00 0.00 0.00 78 1006.5
20260506030903 49 36 0.0 2.0 0.00 0.00 0.00 77 1006.6
20260506030213 49 42 0.0 2.0 0.00 0.00 0.00 78 1006.5
20260506025403 49 89 0.0 2.0 0.00 0.00 0.00 78 1006.7
20260506024503 49 126 1.0 3.0 0.00 0.00 0.00 77 1006.5
20260506023603 49 105 1.0 3.0 0.00 0.00 0.00 77 1006.7
20260506022703 48 82 1.0 2.0 0.00 0.00 0.00 77 1006.6
20260506021803 48 64 0.0 2.0 0.00 0.00 0.00 78 1006.7
20260506021113 48 69 0.0 2.0 0.00 0.00 0.00 78 1006.8
20260506020213 48 77 0.0 2.0 0.00 0.00 0.00 79 1006.8
20260506015403 48 120 0.0 2.0 0.00 0.00 0.00 77 1006.7
20260506014503 49 100 0.0 2.0 0.00 0.00 0.00 77 1007.1
20260506013603 49 88 1.0 2.0 0.00 0.00 0.00 75 1007.0
20260506012703 49 85 0.0 2.0 0.00 0.00 0.00 75 1007.0
20260506011803 50 131 0.0 2.0 0.00 0.00 0.00 73 1007.0
20260506010903 50 120 1.0 4.0 0.00 0.00 0.00 74 1007.0
20260506010003 50 101 1.0 4.0 0.00 0.00 0.00 73 1007.1
20260506005403 50 46 0.0 2.0 0.00 0.00 0.00 72 1006.9
20260506004503 50 68 1.0 2.0 0.00 0.00 0.00 72 1006.9
20260506003603 50 67 0.0 2.0 0.00 0.00 0.00 71 1007.0
20260506002914 51 82 1.0 2.0 0.00 0.00 0.00 71 1007.1
20260506001803 50 75 1.0 2.0 0.00 0.00 0.00 71 1007.1
20260506001113 50 69 0.0 2.0 0.00 0.00 0.00 73 1007.1
20260506000003 50 70 0.0 2.0 0.00 0.00 0.00 72 1007.2
20260505235403 50 129 0.0 2.0 0.00 0.00 0.00 72 1007.1
20260505234503 50 76 1.0 2.0 0.00 0.00 0.00 72 1007.2
20260505233603 50 103 0.0 2.0 0.00 0.00 0.00 72 1007.4
20260505232914 50 118 1.0 2.0 0.00 0.00 0.00 71 1007.6
20260505231803 50 71 0.0 2.0 0.00 0.00 0.00 71 1007.3
20260505230903 50 53 0.0 1.0 0.00 0.00 0.00 71 1007.3
20260505230003 51 63 0.0 2.0 0.00 0.00 0.00 70 1007.7
20260505225403 51 44 0.0 2.0 0.00 0.00 0.00 69 1007.8
20260505224503 52 19 0.0 1.0 0.00 0.00 0.00 68 1007.8
20260505223603 52 20 0.0 1.0 0.00 0.00 0.00 67 1007.8
20260505222913 52 16 0.0 1.0 0.00 0.00 0.00 67 1007.7
20260505222013 52 70 0.0 1.0 0.00 0.00 0.00 68 1007.8
20260505220903 53 57 0.0 1.0 0.00 0.00 0.00 64 1007.7
20260505220213 53 82 0.0 2.0 0.00 0.00 0.00 65 1007.8
20260505215403 53 0 0.0 1.0 0.00 0.00 0.00 64 1008.0
20260505214503 53 135 0.0 1.0 0.00 0.00 0.00 62 1007.9
20260505213603 54 0 0.0 1.0 0.00 0.00 0.00 61 1007.7
20260505212703 55 83 0.0 1.0 0.00 0.00 0.00 59 1007.8
20260505211803 55 137 0.0 2.0 0.00 0.00 0.00 55 1007.7
20260505210903 56 125 0.0 2.0 0.00 0.00 0.00 55 1007.8
20260505210213 57 150 0.0 1.0 0.00 0.00 0.00 51 1007.9
20260505205403 57 161 0.0 2.0 0.00 0.00 0.00 52 1007.9
20260505204503 57 161 1.0 2.0 0.00 0.00 0.00 53 1007.9
20260505203603 57 150 0.0 1.0 0.00 0.00 0.00 54 1007.8
20260505202912 57 174 0.0 1.0 0.00 0.00 0.00 54 1007.8
20260505201803 58 194 0.0 1.0 0.00 0.00 0.00 56 1007.8
20260505200903 59 111 0.0 1.0 0.00 0.00 0.00 51 1007.7
20260505200003 60 173 0.0 2.0 0.00 0.00 0.00 47 1007.7
20260505195403 60 177 0.0 2.0 0.00 0.00 0.00 47 1007.8
20260505194503 61 208 1.0 2.0 0.00 0.00 0.00 45 1007.6
20260505193603 62 212 0.0 2.0 0.00 0.00 0.00 45 1007.6
20260505192912 62 190 0.0 2.0 0.00 0.00 0.00 46 1007.6
20260505191803 62 215 0.0 1.0 0.00 0.00 0.00 45 1007.6
20260505190903 63 207 0.0 1.0 0.00 0.00 0.00 46 1007.6
20260505190003 64 210 0.0 1.0 0.00 0.00 0.00 44 1007.7
20260505185403 65 166 0.0 2.0 0.00 0.00 0.00 44 1007.6
20260505184503 66 230 0.0 1.0 0.00 0.00 0.00 41 1007.3
20260505183812 67 194 0.0 1.0 0.00 0.00 0.00 39 1007.4
20260505182703 69 173 1.0 2.0 0.00 0.00 0.00 36 1007.3
20260505182013 70 170 1.0 3.0 0.00 0.00 0.00 36 1007.3
20260505180903 71 183 2.0 3.0 0.00 0.00 0.00 34 1007.2
20260505180003 72 185 2.0 4.0 0.00 0.00 0.00 33 1007.0